Regional Weather Roundup
Issued by NWS Boston, MA

Current Version | Previous Version | Text Only | Print | Product List | Glossary Off
Versions: 1 2 3 4 5 6 7 8 9 10 11 12 13 14 15 16 17 18 19 20 21 22 23 24 25 26 27
000 ASUS41 KBOX 180210 RWRBOX REGIONAL WEATHER ROUNDUP NATIONAL WEATHER SERVICE TAUNTON MA 900 PM EST FRI NOV 17 2017 NOTE: "FAIR" INDICATES FEW OR NO CLOUDS BELOW 12,000 FEET WITH NO SIGNIFICANT WEATHER AND/OR OBSTRUCTIONS TO VISIBILITY. MAZALL-180300- EASTERN MASSACHUSETTS CITY SKY/WX TMP DP RH WIND PRES REMARKS BOSTON CLEAR 37 14 38 W10 29.99F WCI 30 BEVERLY CLEAR 33 18 53 NW6 29.98S WCI 28 LAWRENCE CLEAR 35 18 49 W5 30.00S WCI 31 BEDFORD CLEAR 28 18 66 CALM 29.98F BLUE HILL NOT AVBL NORWOOD CLEAR 27 21 78 CALM 30.01S MARSHFIELD CLEAR 37 14 38 VRB7G17 29.98F PLYMOUTH CLEAR 34 20 56 W7 29.99R WCI 28 TAUNTON CLEAR 33 21 61 CALM 30.00S NEW BEDFORD CLEAR 34 20 56 NW7 29.99S WCI 28 $$ MAZALL-180300- CAPE COD AND THE ISLANDS CITY SKY/WX TMP DP RH WIND PRES REMARKS FALMOUTH CLEAR 34 21 60 NW10 29.99S WCI 26 HYANNIS CLEAR 36 21 54 N7 29.97R WCI 30 CHATHAM CLEAR 41 17 38 NW13G28 29.97S PROVINCETOWN CLEAR 40 21 46 NW22G31 29.98R WCI 30 NANTUCKET CLEAR 41 23 48 NW20G31 29.98R WCI 32 MARTHAS VNYRD CLEAR 38 22 52 W8 29.99R $$ MAZALL-180300- CENTRAL AND WESTERN MASSACHUSETTS CITY SKY/WX TMP DP RH WIND PRES REMARKS WORCESTER CLEAR 31 14 49 W6 29.96F WCI 25 FITCHBURG CLEAR 35 14 42 NW10 29.99F WCI 27 ORANGE CLEAR 24 20 84 NW3 30.00F SPRINGFIELD PTCLDY 36 9 32 W7 30.01F WCI 30 WESTFIELD CLEAR 31 18 58 NW6 30.03F WCI 25 NORTH ADAMS CLEAR 27 18 69 W7 30.05F WCI 19 PITTSFIELD CLEAR 28 15 58 W6 30.02F WCI 22 $$ RIZALL-180300- RHODE ISLAND CITY SKY/WX TMP DP RH WIND PRES REMARKS PROVIDENCE CLEAR 36 19 50 NW6 30.02S WCI 31 NEWPORT CLEAR 37 20 50 NW15 30.00R WCI 28 BLOCK ISLAND CLEAR 39 20 46 NW12G18 30.03R WCI 32 SMITHFIELD CLEAR 31 20 63 W6 29.99F WCI 25 WESTERLY CLEAR 36 18 48 CALM 30.03R $$ CTZALL-180300- CONNECTICUT CITY SKY/WX TMP DP RH WIND PRES REMARKS BRADLEY INTL PTCLDY 27 19 72 W3 30.04F HARTFORD CLEAR 30 20 66 CALM 30.04F BRIDGEPORT CLEAR 39 15 37 NW6 30.06F DANBURY CLEAR 36 11 35 NW6 30.06F WCI 31 GROTON CLEAR 36 16 44 NW7 30.02F WCI 30 NEW HAVEN CLEAR 39 18 42 W6 30.05F CHESTER FAIR 34 12 40 W3 30.03S MERIDEN CLEAR 27 20 75 CALM 30.05S WILLIMANTIC CLEAR 34 18 52 W3 30.03F OXFORD CLEAR 33 7 33 CALM 30.04S $$ MEZ002-015-021-024-NHZ003-005-008-011-012-014-VTZ005-008-180300- NORTHERN NEW ENGLAND CITY SKY/WX TMP DP RH WIND PRES REMARKS PORTLAND ME CLEAR 29 19 66 CALM 29.96S BANGOR ME CLEAR 29 18 63 NW10G18 29.84R WCI 20 CONCORD NH CLEAR 30 14 51 NW13G22 29.98F WCI 20 MANCHESTER NH CLEAR 32 16 51 N6 29.97S WCI 26 NASHUA NH CLEAR 33 16 49 W5 29.99F WCI 29 PORTSMOUTH NH CLEAR 31 13 48 W10 29.95S WCI 22 JAFFREY NH CLEAR 32 13 45 SE6 29.96S WCI 26 KEENE NH CLEAR 22 17 81 CALM 30.01S BURLINGTON VT CLEAR 24 16 71 E6 30.08F WCI 17 MT. WASHINGTON PTCLDY 16 -29 12 NW64G81 N/A WCI -11 $$ NYZ052-076-180300- EASTERN NEW YORK CITY SKY/WX TMP DP RH WIND PRES REMARKS ALBANY PTCLDY 30 17 58 VRB3 30.08F NEW YORK CITY PTCLDY 43 19 38 NW14 30.07S $$ ANZALL-180300- MARINE OBSERVATIONS STATION/POSITION TIME TEMP WIND PRES VSBY WAVE AIR SEA DIR/SP/G HT/PER (UTC) (F) (DEG/KT/KT) (MB) (MI) (FT/S) BOSTON BUOY 0050 41 51 290/ 23/ 29 1013.1 3/ 4 BUZZARDS BAY 0100 40 300/ 23/ 25 1016.1F NANTUCKET SOUND 0050 43 50 300/ 19/ 23 1014.5 3/ 3 MASS BAY-STELLWA 0104 40 50 310/ 21/ 25 1013.9R 3/ 4 ISLE OF SHOALS 0100 34 290/ 20/ 24 1014.1R S OF BLOCK IS NOT AVBL $$ ......................KEY......................... SKY/WX - SKY CONDITION/PRESENT WEATHER TMP - TEMPERATURE IN FAHRENHEIT DWPT - DEWPOINT IN FAHRENHEIT RH - RELATIVE HUMIDITY IN PERCENT WIND - DIRECTION AND SPEED IN MPH PRES - MEAN SEA LEVEL PRESSURE IN INCHES OF HG WCI - WIND CHILL INDEX VSB - VISIBILITY IN MILES HX - HEAT INDEX TC - TEMPERATURE IN CELSIUS VRB - VARIABLE WIND DIRECTION N/A - NOT AVAILABLE

USA.gov is the U.S. government's official web portal to all federal, state and local government web resources and services.